Tiempo cada hora Abaclia

Hoy, 20 Octubre, Martes

Tiempo Temperatura Precipitaciones Viento Presión Humedad
00:00 +10°C° 0 mm 1 mps 764 mmHg 59%
01:00 +10°C° 0 mm 1 mps 765 mmHg 60%
02:00 +9°C° 0 mm 1 mps 765 mmHg 61%
03:00 +9°C° 0 mm 1 mps 765 mmHg 62%
04:00 +8°C° 0 mm 0 mps 765 mmHg 63%
05:00 +7°C° 0 mm 0 mps 765 mmHg 63%
06:00 +8°C° 0 mm 0 mps 765 mmHg 61%
07:00 +9°C° 0 mm 0 mps 765 mmHg 58%
08:00 +10°C° 0 mm 0 mps 766 mmHg 56%
09:00 +12°C° 0 mm 1 mps 766 mmHg 52%
10:00 +13°C° 0 mm 1 mps 766 mmHg 47%
11:00 +15°C° 0 mm 2 mps 766 mmHg 43%
12:00 +15°C° 0 mm 2 mps 765 mmHg 41%
13:00 +16°C° 0 mm 2 mps 765 mmHg 40%
14:00 +16°C° 0 mm 2 mps 765 mmHg 38%
15:00 +15°C° 0 mm 2 mps 765 mmHg 41%
16:00 +15°C° 0 mm 1 mps 765 mmHg 43%
17:00 +14°C° 0 mm 1 mps 765 mmHg 46%
18:00 +13°C° 0 mm 1 mps 765 mmHg 48%
19:00 +11°C° 0 mm 0 mps 766 mmHg 50%
20:00 +11°C° 0 mm 0 mps 766 mmHg 52%
21:00 +11°C° 0 mm 1 mps 766 mmHg 53%
22:00 +11°C° 0 mm 1 mps 766 mmHg 54%
23:00 +10°C° 0 mm 2 mps 766 mmHg 56%

Mañana, 21 Octubre, Miércoles

Tiempo Temperatura Precipitaciones Viento Presión Humedad
00:00 +9°C° 0 mm 2 mps 766 mmHg 58%
01:00 +9°C° 0 mm 2 mps 766 mmHg 60%
02:00 +9°C° 0 mm 2 mps 765 mmHg 62%
03:00 +9°C° 0 mm 3 mps 765 mmHg 64%
04:00 +8°C° 0 mm 3 mps 765 mmHg 67%
05:00 +8°C° 0 mm 3 mps 765 mmHg 70%
06:00 +8°C° 0 mm 4 mps 764 mmHg 69%
07:00 +9°C° 0 mm 5 mps 764 mmHg 68%
08:00 +9°C° 0 mm 6 mps 764 mmHg 67%
09:00 +11°C° 0 mm 7 mps 764 mmHg 61%
10:00 +14°C° 0 mm 7 mps 764 mmHg 55%
11:00 +15°C° 0 mm 8 mps 763 mmHg 49%
12:00 +16°C° 0 mm 8 mps 763 mmHg 47%
13:00 +16°C° 0 mm 8 mps 762 mmHg 45%
14:00 +17°C° 0 mm 8 mps 762 mmHg 43%
15:00 +16°C° 0 mm 7 mps 762 mmHg 45%
16:00 +15°C° 0 mm 6 mps 761 mmHg 48%
17:00 +14°C° 0 mm 5 mps 761 mmHg 50%
18:00 +14°C° 0 mm 5 mps 761 mmHg 52%
19:00 +13°C° 0 mm 5 mps 761 mmHg 54%
20:00 +13°C° 0 mm 5 mps 761 mmHg 55%
21:00 +13°C° 0 mm 4 mps 761 mmHg 55%
22:00 +12°C° 0 mm 4 mps 760 mmHg 55%
23:00 +12°C° 0 mm 4 mps 760 mmHg 55%

Pasado mañana, 22 Octubre, Jueves

Tiempo Temperatura Precipitaciones Viento Presión Humedad
00:00 +12°C° 0 mm 3 mps 760 mmHg 57%
01:00 +11°C° 0 mm 3 mps 760 mmHg 58%
02:00 +12°C° 0 mm 2 mps 760 mmHg 60%
03:00 +10°C° 0 mm 2 mps 760 mmHg 61%
04:00 +11°C° 0 mm 1 mps 760 mmHg 62%
05:00 +10°C° 0 mm 1 mps 760 mmHg 63%
06:00 +11°C° 0 mm 1 mps 760 mmHg 61%
07:00 +12°C° 0 mm 1 mps 760 mmHg 58%
08:00 +12°C° 0 mm 1 mps 761 mmHg 56%
09:00 +14°C° 0 mm 1 mps 761 mmHg 49%
10:00 +16°C° 0 mm 1 mps 761 mmHg 43%
11:00 +19°C° 0 mm 1 mps 761 mmHg 37%
12:00 +20°C° 0 mm 1 mps 761 mmHg 33%
13:00 +19°C° 0 mm 0 mps 761 mmHg 30%
14:00 +20°C° 0 mm 0 mps 760 mmHg 27%
15:00 +19°C° 0 mm 0 mps 760 mmHg 29%
16:00 +18°C° 0 mm 0 mps 760 mmHg 32%
17:00 +17°C° 0 mm 0 mps 760 mmHg 34%
18:00 +18°C° 0 mm 1 mps 760 mmHg 35%
19:00 +18°C° 0 mm 1 mps 760 mmHg 37%
20:00 +16°C° 0 mm 1 mps 760 mmHg 38%
21:00 +16°C° 0 mm 1 mps 760 mmHg 39%
22:00 +15°C° 0 mm 1 mps 760 mmHg 41%
23:00 +15°C° 0 mm 1 mps 760 mmHg 42%

23 Octubre, Viernes

Tiempo Temperatura Precipitaciones Viento Presión Humedad
00:00 +14°C° 0 mm 2 mps 760 mmHg 43%
01:00 +14°C° 0 mm 2 mps 759 mmHg 44%
02:00 +13°C° 0 mm 2 mps 759 mmHg 45%
03:00 +13°C° 0 mm 2 mps 759 mmHg 49%
04:00 +12°C° 0 mm 2 mps 759 mmHg 53%
05:00 +11°C° 0 mm 3 mps 759 mmHg 57%
06:00 +11°C° 0 mm 3 mps 758 mmHg 57%
07:00 +12°C° 0 mm 3 mps 758 mmHg 58%
08:00 +12°C° 0 mm 4 mps 758 mmHg 58%
09:00 +14°C° 0 mm 4 mps 758 mmHg 52%
10:00 +17°C° 0 mm 4 mps 758 mmHg 45%
11:00 +19°C° 0 mm 5 mps 758 mmHg 39%
12:00 +20°C° 0 mm 5 mps 757 mmHg 36%
13:00 +21°C° 0 mm 4 mps 757 mmHg 33%
14:00 +22°C° 0 mm 4 mps 756 mmHg 30%
15:00 +21°C° 0 mm 4 mps 756 mmHg 34%
16:00 +20°C° 0 mm 3 mps 756 mmHg 38%
17:00 +19°C° 0 mm 3 mps 756 mmHg 41%
18:00 +18°C° 0 mm 3 mps 756 mmHg 44%
19:00 +17°C° 0 mm 3 mps 756 mmHg 47%
20:00 +16°C° 0 mm 3 mps 756 mmHg 50%
21:00 +14°C° 0 mm 3 mps 756 mmHg 52%
22:00 +14°C° 0 mm 3 mps 756 mmHg 54%
23:00 +13°C° 0 mm 3 mps 756 mmHg 56%

24 Octubre, Sábado

Tiempo Temperatura Precipitaciones Viento Presión Humedad
00:00 +13°C° 0 mm 3 mps 755 mmHg 56%
01:00 +14°C° 0 mm 2 mps 755 mmHg 56%
02:00 +13°C° 0 mm 2 mps 755 mmHg 56%
03:00 +13°C° 0 mm 2 mps 755 mmHg 57%
04:00 +13°C° 0 mm 2 mps 755 mmHg 57%
05:00 +12°C° 0 mm 2 mps 755 mmHg 57%
06:00 +13°C° 0 mm 2 mps 755 mmHg 56%
07:00 +13°C° 0 mm 2 mps 755 mmHg 56%
08:00 +14°C° 0 mm 2 mps 755 mmHg 55%
09:00 +15°C° 0 mm 2 mps 755 mmHg 51%
10:00 +17°C° 0 mm 2 mps 755 mmHg 47%
11:00 +18°C° 0 mm 2 mps 755 mmHg 43%
12:00 +19°C° 0 mm 2 mps 755 mmHg 41%
13:00 +20°C° 0 mm 2 mps 755 mmHg 40%
14:00 +20°C° 0 mm 2 mps 755 mmHg 39%
15:00 +20°C° 0 mm 2 mps 755 mmHg 43%
16:00 +19°C° 0 mm 2 mps 755 mmHg 47%
17:00 +18°C° 0 mm 2 mps 755 mmHg 51%
18:00 +17°C° 0 mm 3 mps 756 mmHg 56%
19:00 +17°C° 0 mm 3 mps 756 mmHg 61%
20:00 +16°C° 0 mm 3 mps 757 mmHg 66%
21:00 +14°C° 0 mm 3 mps 757 mmHg 70%
22:00 +13°C° 0 mm 3 mps 757 mmHg 74%
23:00 +13°C° 0 mm 3 mps 757 mmHg 78%

25 Octubre, Domingo

Tiempo Temperatura Precipitaciones Viento Presión Humedad
00:00 +12°C° 0 mm 3 mps 757 mmHg 80%
01:00 +12°C° 0 mm 3 mps 758 mmHg 82%
02:00 +11°C° 0 mm 3 mps 758 mmHg 84%
03:00 +11°C° 0 mm 3 mps 758 mmHg 83%
04:00 +11°C° 0 mm 3 mps 758 mmHg 82%
05:00 +11°C° 0 mm 3 mps 759 mmHg 81%
06:00 +11°C° 0 mm 3 mps 759 mmHg 77%
07:00 +12°C° 0 mm 4 mps 759 mmHg 72%
08:00 +13°C° 0 mm 4 mps 760 mmHg 67%
09:00 +13°C° 0 mm 4 mps 760 mmHg 60%
10:00 +14°C° 0 mm 5 mps 760 mmHg 52%
11:00 +15°C° 0 mm 5 mps 760 mmHg 45%
12:00 +15°C° 0 mm 5 mps 760 mmHg 43%
13:00 +15°C° 0 mm 5 mps 760 mmHg 41%
14:00 +16°C° 0 mm 5 mps 759 mmHg 39%
15:00 +15°C° 0 mm 4 mps 759 mmHg 42%
16:00 +14°C° 0 mm 3 mps 759 mmHg 45%
17:00 +13°C° 0 mm 3 mps 759 mmHg 48%
18:00 +13°C° 0 mm 2 mps 760 mmHg 50%
19:00 +12°C° 0 mm 2 mps 760 mmHg 52%
20:00 +12°C° 0 mm 2 mps 760 mmHg 54%
21:00 +10°C° 0 mm 2 mps 761 mmHg 56%
22:00 +10°C° 0 mm 2 mps 761 mmHg 58%
23:00 +9°C° 0 mm 2 mps 761 mmHg 60%

26 Octubre, Lunes

Tiempo Temperatura Precipitaciones Viento Presión Humedad
00:00 +9°C° 0 mm 2 mps 761 mmHg 63%
01:00 +8°C° 0 mm 2 mps 761 mmHg 66%
02:00 +9°C° 0 mm 1 mps 761 mmHg 69%
03:00 +8°C° 0 mm 1 mps 761 mmHg 71%
04:00 +8°C° 0 mm 1 mps 761 mmHg 73%
05:00 +8°C° 0 mm 1 mps 761 mmHg 75%
06:00 +8°C° 0 mm 1 mps 761 mmHg 73%
07:00 +9°C° 0 mm 1 mps 761 mmHg 72%
08:00 +9°C° 0 mm 1 mps 761 mmHg 70%
09:00 +11°C° 0 mm 1 mps 761 mmHg 64%
10:00 +12°C° 0 mm 2 mps 761 mmHg 58%
11:00 +13°C° 0 mm 2 mps 761 mmHg 52%
12:00 +14°C° 0 mm 2 mps 761 mmHg 49%
13:00 +15°C° 0 mm 2 mps 761 mmHg 46%
14:00 +16°C° 0 mm 2 mps 760 mmHg 42%
15:00 +15°C° 0 mm 2 mps 760 mmHg 45%
16:00 +14°C° 0 mm 2 mps 760 mmHg 48%
17:00 +13°C° 0 mm 2 mps 759 mmHg 51%
18:00 +11°C° 0 mm 3 mps 759 mmHg 58%
19:00 +10°C° 0 mm 3 mps 759 mmHg 66%
20:00 +9°C° 0 mm 3 mps 760 mmHg 74%
21:00 +9°C° 0 mm 3 mps 759 mmHg 77%
22:00 +9°C° 0 mm 3 mps 759 mmHg 80%
23:00 +9°C° 0 mm 3 mps 759 mmHg 82%
Mostrar más

Necesitamos Su Consentimiento

Meteoprog y nuestros Proveedores de Servicios pueden almacenar y acceder a sus datos personales como cookies, identificadores de dispositivo u otras tecnologías similares de su dispositivo y procesar dichos datos para personalizar contenido y anuncios, además de ofrecer funciones de redes sociales y analizar el tráfico.

  • Almacenar y/o acceder a información en su dispositivo

    Se puede almacenar o acceder a cookies, identificadores de dispositivo u otra información de su dispositivo para los fines anteriormente indicados.

  • Anuncios y contenido personalizados, medición de anuncios y contenido, percepciones del público, y desarrollo de productos

    Los anuncios y el contenido pueden personalizarse en base a su perfil. Se pueden añadir más datos para personalizar mejor los anuncios y contenidos. Se puede medir el rendimiento de los anuncios y contenidos. Se puede obtener la percepción sobre el público que ha visto los anuncios y contenidos. Dichos datos pueden usarse para desarrollar o mejorar la experiencia del usuario, sistemas y software.

Al hacer clic en ‘Estoy De Acuerdo’ usted permitirá el uso de las cookies, identificadores de dispositivo, balizas web u otras tecnologías similares indicadas. Su configuración puede cambiarse desde el navegador de su dispositivo.

Para ciertos fines, los intereses legítimos pueden ser considerados por encima del consentimiento. Puede leer más sobre ello en nuestra Política de Privacidad y Cookies.